Showing default

KAISTSAT 4, 27945

Orbit data source: Space-Track

KAISTSAT 4, 27945 is a South Korean payload satellite in SSO that was launched on Sat, 27 Sep 2003 UTC via a KOSMOS 11K65M launch vehicle from the Plesetsk Missile And Space Complex (PKMTR). Payload-class satellites include a variety of spacecraft equipped with specific instruments for various scientific and technological missions. These include communications satellites like Starlink; space stations such as the ISS; scientific satellites like the Hubble; Earth observation satellites from companies like Planet Labs, Umbra, and HawkEye 360; GPS; miniature CubeSats for education and research; and military/defense satellites.

Loading next visibility...
Identifier
27945, 2003-042G
Orbit
SSO
Country
Flag of UnknownUnknown / SKOR
Related business
Manufacturer
SatRec Initiative
Mission
Non-operational Civil Ast/Sci
Bus & Motor
SI-200, Unknown motor
Mass
106 kg wet, 106 kg dry
Launch date (UTC)
2003-09-27 (22 years ago)
Launch vehicle
KOSMOS 11K65M
Launch site
Plesetsk Missile And Space Complex (PKMTR)
Object type
Payload
Rocket body
Debris
Shape & HBR
Box, 0.5 m
Radar Cross Section
0.945 m², Medium (>0.1 m² and < 1m²)

Expand to show TLE details & history
Last TLE update: 10 hours ago

TLE from 10 hours ago
0 KAISTSAT 4
1 27945U 03042G   25289.39525633  .00000766  00000-0  14400-3 0  9999
2 27945  98.3595  87.7838 0012048  29.2364 330.9512 14.67557990178271
Epoch: 2025-10-16T09:29Z
TLE epoch observation values (Epoch: 2025-10-16T09:29:10.146Z)
Latitude
-0.00002°
Longitude
-79.66407°
Altitude
664.444 km
Speed
7.529 km/s
True Right ascension
05h 51m 08s
True Declination
0° 00' 00"
Sunlit
Object was in daylight at epoch
Visualization orbit readout
Latitude
Unknown
Longitude
Unknown
Altitude
Unknown
Speed
Unknown
Apparent Right ascension
Unknown
Apparent Declination
Unknown
Sunlit
N/A
Visualization observer readout
Local Sidereal Time
14:10:13
Azimuth
Unknown
Elevation
Unknown
Doppler factor
Unknown
Orbital elements
Apogee altitude
674.44 km
Perigee altitude
657.467 km
Semi-major axis
7,044.09 km
Eccentricity
0.0012
Inclination
98.3595°
RAAN
87.7838°
Arg. of periapsis
29.2364°
True anomaly
330.88408°
Mean anomaly
330.9512°
Eccentric anomaly
330.91765°
Mean motion
3.67118 °/min
Orbital period
98.06 mins
BSTAR
0.000144
Loading maneuver chart data...
Computing Atmospheric mass density...
Loading historical data...
Loading historical data...
Loading historical data...
Loading historical data...
Loading historical data...
Loading historical data...
Loading historical data...

Documentation

Showing up to 5 results
|